Wind_Speed
14 15 15 15 15 15 15 15 15 14 14 13 13 13 13 13 13 13 13 14 13 13 13 13 14 14 13 13 13 13 13 13 12 12 13 14 14 15 15 16 16 16 17
16 16 16 16 16 16 16 16 15 14 15 15 14 14 14 14 14 13 13 13 13 13 13 12 13 13 13 13 13 13 13 13 12 13 13 14 14 15 16 16 17 17 17
17 17 17 17 17 17 16 17 15 14 15 15 15 15 15 15 15 14 14 14 14 13 13 13 12 12 11 12 13 13 13 13 14 14 15 15 15 15 16 16 16 17 17
18 18 18 18 18 17 16 17 16 15 15 15 15 15 16 16 16 15 15 15 14 14 13 13 13 12 11 11 12 12 13 14 15 15 15 16 16 16 17 17 17 18 19
18 18 18 18 18 17 17 17 16 16 16 16 16 17 17 17 17 16 15 15 14 14 13 13 13 12 12 12 12 12 13 13 14 14 15 15 17 17 18 19 19 20 20
19 19 18 18 18 17 17 16 16 16 16 17 17 17 17 17 17 17 16 15 14 13 13 12 12 13 13 13 14 14 14 14 14 15 16 16 17 18 19 20 21 21 21
19 19 19 19 18 17 16 15 15 16 16 17 17 17 17 17 17 17 16 15 14 14 13 14 14 14 14 15 15 15 15 15 16 17 18 18 19 20 21 21 22 23 23
19 19 20 19 18 16 16 16 16 16 17 17 18 17 18 17 17 16 16 16 15 15 15 15 15 15 16 16 16 16 17 17 17 18 19 20 21 22 22 22 22 22 22
20 20 19 19 19 17 16 17 17 17 17 17 18 18 18 18 17 16 16 16 16 16 16 16 15 16 16 17 17 17 18 18 19 20 21 21 22 22 22 22 22 22 23
20 20 20 19 19 18 17 18 18 18 18 18 18 19 18 18 18 17 17 17 17 17 17 17 17 17 17 18 18 18 19 20 20 20 21 21 21 22 22 22 22 23 23
21 21 21 20 20 19 19 19 19 18 18 19 19 19 19 19 18 17 17 17 17 18 18 19 18 18 19 19 20 19 19 20 20 20 20 21 21 22 22 23 23 23 24
21 22 22 21 21 21 20 20 20 19 19 19 20 20 20 19 18 18 18 17 18 18 19 19 20 20 20 21 21 21 21 21 21 20 20 21 22 22 23 23 23 24 25
22 22 22 23 23 22 21 21 21 21 21 20 20 20 20 19 19 19 19 19 19 20 20 20 21 22 22 23 23 23 23 22 22 21 22 22 23 23 24 24 25 25 25
24 23 23 23 23 23 23 22 21 21 21 20 20 20 19 19 19 20 20 19 20 21 22 22 22 23 23 23 24 24 23 23 23 23 23 24 24 25 25 25 25 25 25
25 24 24 24 23 23 24 23 22 21 21 21 20 20 19 20 20 20 21 21 21 22 23 23 23 23 23 23 23 23 23 23 24 24 24 24 24 25 25 25 25 25 24
25 25 24 23 23 24 24 23 22 22 22 22 21 20 20 21 21 21 21 21 22 22 23 22 22 22 23 23 23 23 23 23 23 24 24 24 24 24 24 24 24 24 24
24 24 24 24 24 23 23 22 22 22 21 21 21 21 21 21 21 21 21 21 21 21 22 23 23 23 23 23 24 24 24 24 24 24 25 24 24 24 24 24 24 24 24
24 24 24 24 24 23 23 23 22 21 22 22 22 21 22 22 21 21 22 22 23 23 24 25 25 25 25 25 25 25 25 25 25 25 25 24 24 25 24 24 25 25 25
25 25 25 24 24 24 23 22 22 22 22 22 21 22 22 23 23 23 24 24 24 24 25 26 26 25 26 26 26 26 25 25 25 25 25 25 25 25 25 25 25 25 24
26 26 25 25 24 23 22 21 21 22 22 22 22 23 22 23 24 25 25 25 25 25 26 26 27 26 26 26 26 26 25 25 25 25 25 25 25 25 25 24 24 24 24
26 26 25 25 24 23 22 22 22 22 22 23 23 24 24 25 25 25 25 26 26 27 27 27 27 27 26 26 25 25 25 25 25 24 24 25 25 24 24 24 24 23 23
26 26 25 24 24 23 23 22 22 23 24 24 24 25 26 26 26 27 27 27 27 27 27 27 27 26 26 25 25 25 24 24 23 24 24 24 24 24 24 24 24 24 24
25 25 25 24 24 24 24 24 24 25 26 26 26 25 26 26 27 27 28 28 27 28 28 28 27 26 25 25 25 25 25 25 25 24 24 24 24 24 24 24 24 24 24
24 24 24 24 25 25 25 25 25 25 26 26 26 26 25 26 26 27 27 27 27 27 27 26 25 25 25 25 25 25 25 25 25 24 25 25 25 24 24 24 24 25 25
23 24 24 25 25 25 26 25 25 25 26 26 26 26 25 26 26 26 26 26 26 26 26 25 25 25 25 25 25 25 25 25 25 25 24 25 24 24 24 24 25 25 25
23 23 24 24 25 25 26 25 24 25 25 26 26 25 25 25 25 25 25 25 25 25 25 25 25 25 24 24 24 24 24 25 25 25 25 25 25 25 25 25 25 26 26
Wind_Direction
286 288 291 294 297 298 296 297 299 299 301 303 306 305 305 305 307 307 303 299 297 295 289 283 282 280 277 274 272 270 273 276 277 272 271 272 269 270 273 277 279 282 283
285 288 289 291 294 297 296 295 294 295 295 296 299 301 301 303 303 303 303 303 299 295 290 285 283 279 274 273 274 274 275 277 277 279 279 278 276 274 275 278 279 281 283
285 288 290 293 294 297 295 294 292 292 292 294 295 297 299 301 300 298 299 301 299 294 289 285 284 283 274 275 277 276 275 277 278 280 281 279 277 277 277 279 281 282 284
283 285 288 293 294 295 294 292 288 288 289 291 293 295 296 297 297 297 298 298 294 287 285 283 284 284 280 279 278 277 277 278 279 280 282 279 278 278 278 280 283 285 285
279 282 286 290 291 291 291 293 289 287 289 291 293 293 293 294 295 297 298 297 294 287 285 284 280 283 280 279 280 281 280 281 281 283 282 280 280 280 280 282 283 285 286
278 280 283 285 289 289 289 289 289 290 290 290 292 292 292 292 292 293 294 296 295 288 285 285 283 281 281 280 281 282 284 283 283 287 286 286 285 285 284 284 284 285 286
276 279 281 283 286 286 285 287 286 287 289 292 293 291 290 291 292 291 290 291 290 288 286 281 279 280 282 281 281 281 283 283 285 288 287 287 286 285 284 285 286 287 286
273 277 279 281 283 281 281 286 286 286 288 290 293 294 291 292 291 290 289 289 287 284 285 283 281 282 282 280 281 282 282 284 285 286 286 286 285 285 286 287 287 288 288
271 274 277 278 278 278 279 283 284 285 287 289 291 291 292 293 290 291 288 287 287 284 284 284 284 284 282 279 281 283 284 285 285 286 287 288 288 287 287 289 289 290 290
271 274 276 279 278 276 277 279 281 283 285 288 289 289 290 293 292 290 286 285 285 283 282 283 283 284 282 281 281 283 285 287 288 289 290 291 290 288 289 291 291 291 291
270 274 276 279 279 279 277 277 279 281 284 286 288 289 290 290 290 290 285 284 283 282 282 282 282 282 281 281 282 284 286 287 288 289 289 290 290 290 291 291 290 291 293
270 273 276 278 279 279 277 277 278 280 281 283 285 287 288 288 287 287 284 284 285 283 282 282 283 283 282 283 283 283 285 285 286 287 287 290 291 290 291 291 290 291 292
270 272 274 277 278 278 277 276 276 279 281 282 283 285 286 286 285 285 285 285 285 284 282 282 284 284 284 284 283 283 283 283 285 286 288 290 291 290 292 293 293 294 294
268 270 272 274 275 276 277 278 278 279 280 281 282 283 284 284 284 284 285 285 287 287 284 284 284 285 285 284 283 282 282 283 284 286 287 288 289 290 292 292 293 293 293
268 268 269 271 273 275 276 277 275 276 277 279 281 281 283 285 285 285 285 285 287 288 288 285 284 284 284 284 283 282 284 284 284 286 287 288 289 290 291 291 292 293 293
267 267 269 272 274 275 277 277 277 277 276 277 280 281 282 285 285 285 284 285 286 288 289 286 283 282 283 282 282 282 283 283 283 284 287 287 289 291 292 292 292 292 291
268 270 272 272 274 276 276 277 277 275 274 275 278 278 280 282 282 282 284 286 287 287 288 287 285 283 283 282 283 284 283 282 283 284 287 288 289 290 291 292 293 292 292
268 271 272 272 273 273 273 274 274 274 275 275 276 277 279 280 280 281 282 284 287 287 287 287 287 286 284 283 283 283 283 283 284 285 286 287 288 290 291 290 292 293 292
269 270 271 272 271 273 273 271 273 275 277 278 276 276 278 279 280 282 285 286 287 287 288 287 287 287 285 283 282 282 281 281 282 284 285 287 288 288 289 290 291 292 291
268 268 268 269 269 269 269 272 275 275 277 278 277 277 278 280 281 283 285 287 287 288 288 288 287 286 285 283 282 281 280 281 282 283 285 286 286 286 287 288 290 291 291
266 267 266 267 267 267 269 272 275 276 277 277 276 277 278 278 282 284 286 287 288 288 288 288 287 286 284 282 281 281 281 282 283 284 285 286 286 286 286 286 286 288 289
266 266 266 266 267 269 270 272 275 276 277 277 277 278 279 280 281 284 286 288 289 288 287 287 287 285 282 281 281 282 282 281 283 284 286 286 286 286 286 285 284 285 286
264 264 265 266 267 268 269 272 274 276 277 278 276 277 279 281 284 286 286 286 286 287 287 286 285 285 283 282 281 280 280 280 281 282 285 286 286 286 286 285 285 284 284
265 264 265 265 266 268 270 274 277 278 277 279 279 279 280 282 284 286 286 286 286 286 286 285 285 284 284 284 283 282 282 282 282 283 284 287 289 289 288 285 284 284 284
267 267 267 266 267 269 272 274 277 278 278 279 280 278 280 283 284 285 285 285 286 287 286 285 285 286 286 286 285 285 285 284 284 284 285 286 288 288 287 285 283 284 284
269 269 268 268 268 270 272 273 275 277 278 280 280 279 281 282 282 282 284 285 286 286 287 287 286 285 285 285 285 285 285 286 286 286 285 286 287 286 286 285 284 284 284
Height
5854 5854 5853 5851 5850 5848 5847 5846 5844 5843 5841 5840 5839 5838 5836 5835 5833 5832 5830 5829 5828 5827 5826 5825 5824 5824 5823 5823 5822 5822 5822 5821 5820 5820 5819 5819 5818 5818 5817 5816 5815 5814 5812
5850 5849 5848 5847 5845 5844 5842 5841 5840 5839 5837 5836 5835 5834 5833 5831 5830 5829 5827 5825 5824 5823 5822 5821 5820 5820 5819 5818 5818 5818 5818 5817 5816 5816 5815 5814 5813 5813 5812 5811 5810 5808 5807
5846 5845 5844 5842 5840 5839 5837 5836 5835 5834 5833 5832 5831 5830 5829 5827 5826 5825 5823 5822 5820 5819 5818 5817 5816 5816 5815 5814 5814 5814 5813 5813 5812 5811 5811 5809 5809 5808 5807 5806 5805 5804 5802
5841 5840 5839 5837 5836 5834 5833 5831 5830 5829 5829 5828 5827 5826 5824 5823 5822 5820 5819 5818 5816 5815 5814 5813 5812 5812 5811 5810 5810 5810 5809 5809 5808 5807 5806 5805 5804 5803 5802 5801 5800 5798 5797
5836 5836 5834 5833 5831 5830 5828 5826 5825 5824 5824 5823 5822 5821 5820 5818 5817 5816 5815 5813 5812 5811 5810 5809 5808 5808 5807 5807 5806 5806 5805 5804 5803 5802 5801 5800 5799 5798 5797 5796 5795 5793 5791
5831 5830 5830 5829 5827 5825 5823 5822 5821 5820 5819 5818 5817 5816 5814 5813 5812 5811 5810 5809 5807 5807 5806 5805 5805 5804 5803 5803 5802 5801 5801 5800 5799 5798 5797 5796 5794 5793 5792 5790 5789 5787 5785
5826 5825 5825 5823 5822 5821 5819 5818 5816 5815 5815 5814 5812 5810 5810 5808 5807 5806 5805 5804 5803 5803 5802 5801 5801 5800 5799 5798 5798 5797 5796 5795 5795 5794 5792 5791 5789 5788 5786 5784 5782 5780 5779
5821 5820 5819 5818 5816 5815 5815 5814 5812 5811 5810 5809 5807 5805 5804 5803 5802 5801 5800 5799 5799 5798 5798 5797 5796 5795 5794 5794 5793 5792 5791 5790 5790 5788 5787 5785 5783 5781 5780 5778 5776 5774 5772
5815 5815 5814 5813 5812 5810 5809 5809 5808 5807 5806 5804 5803 5801 5800 5798 5797 5796 5795 5794 5794 5793 5792 5792 5791 5790 5789 5789 5788 5787 5786 5785 5783 5782 5780 5778 5776 5775 5773 5771 5769 5767 5765
5809 5809 5808 5807 5807 5806 5805 5804 5803 5802 5801 5800 5798 5796 5795 5794 5792 5791 5790 5789 5789 5788 5787 5786 5786 5785 5784 5783 5782 5781 5780 5779 5777 5775 5773 5771 5769 5768 5766 5764 5762 5760 5758
5803 5803 5802 5802 5801 5800 5800 5799 5798 5797 5796 5794 5793 5792 5790 5788 5787 5786 5785 5784 5783 5782 5781 5781 5780 5779 5778 5777 5776 5775 5774 5772 5771 5769 5767 5765 5763 5761 5759 5757 5755 5753 5751
5797 5797 5796 5796 5795 5794 5794 5793 5792 5791 5790 5789 5788 5786 5784 5783 5782 5781 5779 5779 5778 5777 5776 5775 5774 5773 5772 5771 5770 5768 5767 5765 5764 5762 5761 5759 5757 5755 5752 5750 5748 5745 5743
5791 5791 5790 5790 5789 5788 5788 5787 5786 5785 5785 5784 5782 5781 5779 5778 5777 5776 5775 5773 5772 5771 5770 5769 5768 5767 5765 5764 5763 5761 5760 5758 5757 5756 5754 5752 5750 5748 5745 5743 5740 5738 5735
5784 5784 5784 5783 5783 5782 5782 5781 5780 5780 5779 5778 5777 5776 5774 5773 5772 5770 5769 5768 5766 5765 5763 5762 5761 5760 5758 5757 5755 5754 5753 5751 5750 5749 5747 5745 5743 5740 5738 5736 5733 5731 5728
5777 5776 5776 5776 5776 5776 5775 5775 5774 5774 5773 5772 5771 5770 5769 5768 5766 5765 5763 5762 5760 5759 5757 5755 5754 5753 5751 5749 5748 5747 5745 5744 5743 5741 5739 5737 5735 5733 5730 5728 5726 5724 5721
5770 5769 5769 5770 5770 5769 5769 5768 5767 5767 5767 5766 5765 5764 5763 5762 5760 5759 5758 5756 5754 5752 5751 5749 5747 5746 5744 5743 5741 5740 5738 5737 5735 5733 5732 5730 5728 5726 5723 5721 5719 5716 5714
5763 5762 5762 5763 5763 5763 5762 5762 5761 5761 5760 5760 5759 5758 5757 5756 5754 5753 5751 5749 5747 5746 5744 5742 5741 5739 5737 5735 5734 5732 5731 5729 5727 5726 5724 5722 5720 5718 5716 5714 5711 5709 5707
5755 5756 5755 5755 5755 5755 5755 5755 5754 5754 5753 5753 5752 5751 5750 5749 5748 5746 5745 5743 5741 5739 5737 5735 5733 5731 5730 5728 5726 5724 5722 5721 5719 5718 5716 5714 5712 5710 5708 5706 5704 5702 5700
5748 5748 5748 5748 5748 5748 5748 5748 5747 5747 5747 5746 5745 5744 5743 5742 5741 5740 5738 5736 5734 5732 5730 5728 5725 5723 5721 5719 5717 5716 5714 5713 5711 5710 5708 5706 5705 5703 5701 5699 5697 5694 5692
5740 5741 5741 5741 5741 5741 5741 5741 5741 5740 5740 5739 5739 5738 5736 5735 5734 5732 5730 5728 5726 5724 5722 5719 5717 5715 5713 5711 5709 5708 5706 5705 5703 5701 5700 5698 5696 5694 5693 5691 5689 5687 5685
5732 5732 5733 5733 5733 5734 5734 5734 5734 5734 5733 5732 5732 5730 5729 5728 5726 5725 5723 5721 5719 5716 5714 5711 5709 5707 5705 5703 5701 5700 5698 5696 5695 5693 5692 5690 5688 5687 5685 5683 5682 5680 5678
5724 5724 5725 5726 5726 5726 5726 5726 5726 5726 5726 5725 5724 5723 5721 5720 5718 5717 5715 5713 5710 5708 5705 5703 5701 5698 5697 5695 5693 5692 5690 5689 5687 5686 5684 5682 5681 5679 5677 5676 5674 5672 5670
5715 5716 5717 5718 5718 5719 5719 5718 5718 5718 5717 5717 5715 5714 5713 5711 5710 5708 5706 5704 5701 5699 5697 5694 5692 5690 5688 5687 5685 5684 5682 5681 5680 5678 5677 5675 5673 5671 5669 5668 5666 5665 5663
5707 5708 5709 5709 5710 5710 5711 5710 5710 5709 5709 5708 5707 5706 5704 5703 5701 5699 5697 5695 5692 5690 5688 5686 5684 5682 5681 5679 5677 5676 5674 5673 5671 5670 5669 5667 5665 5663 5662 5660 5659 5657 5655
5699 5700 5701 5701 5701 5702 5702 5702 5701 5701 5700 5699 5698 5697 5695 5694 5692 5690 5688 5686 5684 5682 5680 5678 5676 5674 5673 5671 5670 5668 5667 5665 5663 5661 5660 5659 5657 5655 5654 5652 5651 5649 5647
5691 5691 5692 5692 5692 5692 5693 5693 5693 5692 5691 5690 5689 5688 5686 5685 5684 5682 5680 5678 5676 5674 5672 5670 5668 5667 5665 5663 5662 5660 5659 5657 5655 5653 5652 5650 5649 5647 5646 5644 5642 5641 5640